Weather History for Bullsbrook Pearce, WE

Change the Weather History Date:

Tuesday, February 12, 2013

  Actual Average (YPPH) Record (YPPH)
Temperature  
Mean Temperature 92 °F -  
Max Temperature 106 °F 87 °F 106 °F (2013)
Min Temperature 73 °F 62 °F 59 °F (1997)
Cooling Degree Days 27    
Growing Degree Days 42 (Base 50)    
Moisture  
Dew Point 46 °F    
Average Humidity 21    
Maximum Humidity 50    
Minimum Humidity 6    
Precipitation  
Precipitation 0.00 in - - ()
Sea Level Pressure  
Sea Level Pressure 29.85 in    
Wind  
Wind Speed 11 mph ()    
Max Wind Speed 17 mph    
Max Gust Speed 29 mph    
Visibility 9.4 miles    
Events      
Averages and records for this station are not official NWS values.
T = Trace of Precipitation, MM = Missing Value Source: Averaged Metar Reports

Daily Weather History Graph

Daily Weather History Graph

Search for Another Location

Airport:

Trip Planner

Search our weather history database for the weather conditions in past years. The results will help you decide how hot, cold, wet, or windy it might be!

Date:

Astronomy

Feb. 12, 2013 Rise Set
Actual Time 5:51 AM AWST 7:08 PM AWST
Civil Twilight 5:25 AM AWST 7:33 PM AWST
Nautical Twilight 4:55 AM AWST 8:04 PM AWST
Astronomical Twilight 4:23 AM AWST 8:35 PM AWST
Moon 7:42 AM AWST (2/12) 8:06 PM AWST (2/12)
Length of Visible Light 14h 08m
Length of Day
13h 17m
Waxing Crescent, 4% of the Moon is Illuminated
Feb 12
Waxing Crescent
Feb 18
First Quarter
Feb 26
Full
Mar 5
Last Quarter
Mar 12
New

Hourly Weather History & Observations

Time (AWST) Temp. Dew Point Humidity Pressure Visibility Wind Dir Wind Speed Gust Speed Precip Events Conditions
12:00 AM 91 °F 42 °F 10% 29.86 in - ESE 11.5 mph - -  
12:00 AM 91.4 °F 41.0 °F 17% 29.86 in 6.2 mi ESE 11.5 mph - N/A   Unknown
1:00 AM 89.6 °F 44.6 °F 21% 29.86 in 6.2 mi East 12.7 mph - N/A   Unknown
2:00 AM 87.8 °F 42.8 °F 21% 29.83 in 6.2 mi East 13.8 mph - N/A   Unknown
3:00 AM 86 °F 42 °F 13% 29.85 in - East 16.1 mph - -  
3:00 AM 86.0 °F 42.8 °F 22% 29.86 in 6.2 mi East 16.1 mph - N/A   Unknown
4:00 AM 86.0 °F 44.6 °F 23% 29.83 in 6.2 mi East 15.0 mph - N/A   Unknown
5:00 AM 84.2 °F 46.4 °F 27% 29.83 in 6.2 mi East 15.0 mph - N/A   Unknown
7:00 AM 86.0 °F 46.4 °F 25% 29.86 in - ENE 17.3 mph - N/A   Clear
7:09 AM 86.0 °F 46.4 °F 25% 29.86 in - ENE 17.3 mph 28.8 mph N/A   Clear
8:00 AM 89.6 °F 46.4 °F 22% 29.86 in - ENE 15.0 mph - N/A   Clear
9:00 AM 93 °F 46 °F 12% 29.87 in 19 mi East 11.5 mph - -   Partly Cloudy
9:00 AM 93.2 °F 46.4 °F 20% 29.86 in - ENE 11.5 mph - N/A   Clear
10:00 AM 98.6 °F 46.4 °F 17% 29.86 in - NE 10.4 mph - N/A   Clear
11:00 AM 100.4 °F 44.6 °F 15% 29.86 in - NE 10.4 mph - N/A   Clear
12:00 PM 105 °F 42 °F 6% 29.85 in - North 15.0 mph - -  
12:00 PM 105.8 °F 42.8 °F 12% 29.86 in - North 15.0 mph - N/A   Clear
1:00 PM 102.2 °F 41.0 °F 12% 29.83 in - SSW 1.2 mph - N/A   Clear
1:39 PM 104.0 °F 44.6 °F 13% 29.83 in - WSW 17.3 mph - N/A   Clear
2:00 PM 102.2 °F 46.4 °F 15% 29.83 in - WSW 17.3 mph - N/A   Clear
3:00 PM 100 °F 44 °F 8% 29.82 in 19 mi WSW 15.0 mph - -   Partly Cloudy
3:00 PM 100.4 °F 44.6 °F 15% 29.80 in - WSW 15.0 mph - N/A   Clear
4:00 PM 98.6 °F 44.6 °F 16% 29.83 in - West 13.8 mph - N/A   Clear
5:00 PM 95.0 °F 44.6 °F 18% 29.83 in - WSW 12.7 mph - N/A   Clear
6:00 PM 91 °F 47 °F 13% 29.83 in - West 8.1 mph - -  
6:00 PM 91.4 °F 48.2 °F 23% 29.83 in - West 8.1 mph - N/A   Clear
7:00 PM 87.8 °F 48.2 °F 25% 29.83 in - WNW 5.8 mph - N/A   Clear
8:00 PM 84.2 °F 48.2 °F 29% 29.86 in - NW 4.6 mph - N/A   Clear
9:00 PM 79 °F 53 °F 30% 29.89 in - North 9.2 mph - -  
9:00 PM 78.8 °F 53.6 °F 42% 29.89 in - North 9.2 mph - N/A   Clear
10:00 PM 78.8 °F 55.4 °F 44% 29.89 in - North 2.3 mph - N/A   Clear
11:00 PM 73.4 °F 53.6 °F 50% 29.89 in - North 4.6 mph - N/A   Clear